When you browse on this site, cookies collect data to enhance your experience and personalize the content and advertising you see.
Visit our Privacy Policy to learn more. By continuing to use the site, you agree to this use of cookies and data.

Tiempo cada hora La Unión

Hoy, 9 Agosto, Domingo

Tiempo Temperatura Precipitaciones Viento Presión Humedad
00:00 +10°C° 4.2 mm 1 mps 756 mmHg 99%
01:00 +10°C° 4.2 mm 1 mps 756 mmHg 99%
02:00 +9°C° 3.6 mm 2 mps 755 mmHg 99%
03:00 +10°C° 3.6 mm 2 mps 755 mmHg 98%
04:00 +10°C° 3.6 mm 2 mps 754 mmHg 98%
05:00 +10°C° 3.5 mm 2 mps 755 mmHg 98%
06:00 +10°C° 3.5 mm 1 mps 755 mmHg 98%
07:00 +10°C° 3.5 mm 1 mps 755 mmHg 98%
08:00 +10°C° 1.3 mm 1 mps 755 mmHg 98%
09:00 +10°C° 1.3 mm 1 mps 755 mmHg 98%
10:00 +8°C° 1.3 mm 2 mps 755 mmHg 98%
11:00 +8°C° 0.1 mm 2 mps 756 mmHg 96%
12:00 +9°C° 0.1 mm 2 mps 756 mmHg 95%
13:00 +9°C° 0.1 mm 2 mps 757 mmHg 93%
14:00 +9°C° 0 mm 1 mps 757 mmHg 91%
15:00 +9°C° 0 mm 1 mps 758 mmHg 90%
16:00 +9°C° 0 mm 1 mps 758 mmHg 89%
17:00 +8°C° 0 mm 1 mps 759 mmHg 90%
18:00 +6°C° 0 mm 1 mps 760 mmHg 91%
19:00 +5°C° 0 mm 1 mps 760 mmHg 91%
20:00 +5°C° 0.1 mm 1 mps 760 mmHg 92%
21:00 +5°C° 0.1 mm 2 mps 761 mmHg 92%
22:00 +5°C° 0.1 mm 2 mps 761 mmHg 92%
23:00 +4°C° 0.8 mm 2 mps 761 mmHg 93%

Mañana, 10 Agosto, Lunes

Tiempo Temperatura Precipitaciones Viento Presión Humedad
00:00 +4°C° 0.8 mm 2 mps 761 mmHg 94%
01:00 +4°C° 0.8 mm 2 mps 761 mmHg 95%
02:00 +3°C° 0.3 mm 2 mps 762 mmHg 95%
03:00 +3°C° 0.3 mm 2 mps 762 mmHg 95%
04:00 +4°C° 0.3 mm 1 mps 762 mmHg 95%
05:00 +3°C° 0.1 mm 1 mps 763 mmHg 95%
06:00 +3°C° 0.1 mm 1 mps 764 mmHg 94%
07:00 +3°C° 0.1 mm 1 mps 765 mmHg 94%
08:00 +3°C° 0.1 mm 2 mps 765 mmHg 90%
09:00 +5°C° 0.1 mm 2 mps 766 mmHg 85%
10:00 +6°C° 0.1 mm 2 mps 766 mmHg 80%
11:00 +7°C° 0.2 mm 2 mps 766 mmHg 76%
12:00 +8°C° 0.2 mm 2 mps 766 mmHg 71%
13:00 +8°C° 0.2 mm 2 mps 766 mmHg 67%
14:00 +8°C° 0.2 mm 2 mps 766 mmHg 71%
15:00 +9°C° 0.2 mm 1 mps 766 mmHg 75%
16:00 +8°C° 0.2 mm 1 mps 766 mmHg 79%
17:00 +6°C° 0 mm 1 mps 767 mmHg 83%
18:00 +5°C° 0 mm 1 mps 767 mmHg 88%
19:00 +2°C° 0 mm 0 mps 768 mmHg 93%
20:00 +3°C° 0 mm 1 mps 767 mmHg 93%
21:00 +3°C° 0 mm 1 mps 767 mmHg 94%
22:00 +3°C° 0 mm 1 mps 767 mmHg 95%
23:00 +3°C° 0 mm 1 mps 767 mmHg 94%

Pasado mañana, 11 Agosto, Martes

Tiempo Temperatura Precipitaciones Viento Presión Humedad
00:00 +3°C° 0 mm 1 mps 767 mmHg 94%
01:00 +3°C° 0 mm 1 mps 767 mmHg 94%
02:00 +3°C° 0 mm 1 mps 766 mmHg 95%
03:00 +3°C° 0 mm 1 mps 765 mmHg 95%
04:00 +3°C° 0 mm 1 mps 765 mmHg 96%
05:00 +3°C° 0 mm 1 mps 764 mmHg 95%
06:00 +4°C° 0 mm 1 mps 764 mmHg 95%
07:00 +4°C° 0 mm 1 mps 764 mmHg 94%
08:00 +5°C° 0 mm 1 mps 763 mmHg 93%
09:00 +6°C° 0 mm 1 mps 763 mmHg 91%
10:00 +7°C° 0 mm 1 mps 763 mmHg 89%
11:00 +8°C° 0.1 mm 1 mps 762 mmHg 88%
12:00 +8°C° 0.1 mm 1 mps 761 mmHg 86%
13:00 +9°C° 0.1 mm 1 mps 761 mmHg 85%
14:00 +9°C° 0.1 mm 1 mps 760 mmHg 86%
15:00 +8°C° 0.1 mm 1 mps 760 mmHg 88%
16:00 +8°C° 0.1 mm 1 mps 759 mmHg 89%
17:00 +8°C° 0.1 mm 1 mps 759 mmHg 91%
18:00 +7°C° 0.1 mm 1 mps 759 mmHg 93%
19:00 +7°C° 0.1 mm 1 mps 758 mmHg 96%
20:00 +6°C° 0.1 mm 1 mps 758 mmHg 96%
21:00 +6°C° 0.1 mm 1 mps 758 mmHg 97%
22:00 +6°C° 0.1 mm 1 mps 758 mmHg 97%
23:00 +6°C° 0.3 mm 1 mps 758 mmHg 97%

12 Agosto, Miércoles

Tiempo Temperatura Precipitaciones Viento Presión Humedad
00:00 +6°C° 0.3 mm 1 mps 757 mmHg 97%
01:00 +6°C° 0.3 mm 1 mps 757 mmHg 97%
02:00 +6°C° 0.1 mm 1 mps 757 mmHg 97%
03:00 +5°C° 0.1 mm 1 mps 757 mmHg 97%
04:00 +5°C° 0.1 mm 1 mps 757 mmHg 97%
05:00 +4°C° 0 mm 1 mps 757 mmHg 97%
06:00 +4°C° 0 mm 1 mps 758 mmHg 97%
07:00 +3°C° 0 mm 1 mps 758 mmHg 97%
08:00 +5°C° 0.1 mm 1 mps 759 mmHg 93%
09:00 +6°C° 0.1 mm 2 mps 759 mmHg 89%
10:00 +7°C° 0.1 mm 2 mps 760 mmHg 86%
11:00 +8°C° 0.3 mm 2 mps 760 mmHg 83%
12:00 +8°C° 0.3 mm 2 mps 760 mmHg 80%
13:00 +8°C° 0.3 mm 2 mps 760 mmHg 78%
14:00 +8°C° 0.2 mm 2 mps 760 mmHg 80%
15:00 +9°C° 0.2 mm 1 mps 760 mmHg 82%
16:00 +8°C° 0.2 mm 1 mps 760 mmHg 84%
17:00 +7°C° 0 mm 1 mps 761 mmHg 87%
18:00 +5°C° 0 mm 1 mps 761 mmHg 90%
19:00 +4°C° 0 mm 1 mps 761 mmHg 93%
20:00 +4°C° 0.1 mm 1 mps 761 mmHg 94%
21:00 +4°C° 0.1 mm 1 mps 761 mmHg 95%
22:00 +4°C° 0.1 mm 1 mps 761 mmHg 96%
23:00 +4°C° 0 mm 1 mps 761 mmHg 97%

13 Agosto, Jueves

Tiempo Temperatura Precipitaciones Viento Presión Humedad
00:00 +4°C° 0 mm 1 mps 761 mmHg 97%
01:00 +4°C° 0 mm 1 mps 761 mmHg 97%
02:00 +4°C° 0.1 mm 1 mps 760 mmHg 97%
03:00 +5°C° 0.1 mm 1 mps 760 mmHg 97%
04:00 +5°C° 0.1 mm 1 mps 760 mmHg 97%
05:00 +5°C° 0 mm 1 mps 759 mmHg 97%
06:00 +5°C° 0 mm 1 mps 759 mmHg 97%
07:00 +5°C° 0 mm 1 mps 758 mmHg 97%
08:00 +5°C° 0.1 mm 2 mps 758 mmHg 96%
09:00 +6°C° 0.1 mm 2 mps 757 mmHg 94%
10:00 +7°C° 0.1 mm 2 mps 757 mmHg 92%
11:00 +7°C° 1.2 mm 2 mps 756 mmHg 93%
12:00 +7°C° 1.2 mm 2 mps 755 mmHg 95%
13:00 +7°C° 1.2 mm 3 mps 755 mmHg 96%
14:00 +7°C° 1.3 mm 2 mps 754 mmHg 97%
15:00 +7°C° 1.3 mm 2 mps 754 mmHg 97%
16:00 +7°C° 1.3 mm 2 mps 753 mmHg 98%
17:00 +8°C° 0.5 mm 1 mps 753 mmHg 98%
18:00 +8°C° 0.5 mm 1 mps 754 mmHg 98%
19:00 +8°C° 0.5 mm 1 mps 754 mmHg 98%
20:00 +8°C° 0.6 mm 1 mps 754 mmHg 98%
21:00 +8°C° 0.6 mm 1 mps 755 mmHg 97%
22:00 +7°C° 0.6 mm 2 mps 755 mmHg 96%
23:00 +6°C° 0.1 mm 2 mps 756 mmHg 96%

14 Agosto, Viernes

Tiempo Temperatura Precipitaciones Viento Presión Humedad
00:00 +4°C° 0.1 mm 2 mps 756 mmHg 96%
01:00 +4°C° 0.1 mm 1 mps 757 mmHg 96%
02:00 +4°C° 0 mm 1 mps 757 mmHg 96%
03:00 +3°C° 0 mm 1 mps 758 mmHg 96%
04:00 +1°C° 0 mm 0 mps 758 mmHg 96%
05:00 +1°C° 0 mm 0 mps 759 mmHg 96%
06:00 +1°C° 0 mm 0 mps 760 mmHg 96%
07:00 0°C° 0 mm 0 mps 760 mmHg 96%
08:00 +3°C° 0 mm 0 mps 761 mmHg 91%
09:00 +5°C° 0 mm 0 mps 761 mmHg 86%
10:00 +7°C° 0 mm 0 mps 762 mmHg 80%
11:00 +8°C° 0.1 mm 1 mps 761 mmHg 77%
12:00 +9°C° 0.1 mm 1 mps 761 mmHg 74%
13:00 +8°C° 0.1 mm 2 mps 761 mmHg 71%
14:00 +8°C° 0.1 mm 2 mps 760 mmHg 73%
15:00 +7°C° 0.1 mm 2 mps 760 mmHg 76%
16:00 +7°C° 0.1 mm 2 mps 759 mmHg 79%
17:00 +6°C° 0.4 mm 2 mps 759 mmHg 84%
18:00 +6°C° 0.4 mm 2 mps 759 mmHg 89%
19:00 +5°C° 0.4 mm 2 mps 759 mmHg 95%
20:00 +4°C° 0.3 mm 2 mps 760 mmHg 95%
21:00 +4°C° 0.3 mm 1 mps 760 mmHg 96%
22:00 +3°C° 0.3 mm 1 mps 761 mmHg 96%
23:00 +3°C° 0 mm 1 mps 761 mmHg 97%
Mostrar más